This demonstration page uses our WeatherBlox Daily Observations layout. Learn more.

40.92945, -100.16068

Hourly Observations for January 6, 2017

Temp ( °F °C ) Dew Point ( °F °C ) Humidity (%) Winds ( mph kmh ) Pressure ( in mb ) Visibility ( mi km ) Precip ( " mm )
12:15 am 00:15 Clear -18 -27.7 -24 -30.9 74 74 WNW 3 6 30.56 1035 10 16.0934 0 0
12:35 am 00:35 Clear -18 -27.6 -24 -31 73 73 NW 3 6 30.56 1035 10 16.0934 0 0
12:55 am 00:55 Clear -18 -27.7 -24 -31.2 72 72 NW 8 13 30.56 1035 10 16.0934 0 0
1:15 am 01:15 Clear -17 -27.1 -23 -30.6 72 72 WNW 3 6 30.53 1034 10 16.0934 0 0
1:35 am 01:35 Clear -17 -27 -23 -30.6 72 72 WNW 5 7 30.53 1034 10 16.0934 0 0
1:55 am 01:55 Clear -18 -27.7 -25 -31.5 70 70 NNW 5 7 30.56 1035 10 16.0934 0 0
2:15 am 02:15 Clear -17 -27.4 -23 -30.7 73 73 NNW 3 6 30.53 1034 10 16.0934 0 0
2:35 am 02:35 Clear -16 -26.8 -23 -30.3 72 72 Calm 30.5 1033 10 16.0934 0 0
2:55 am 02:55 Clear -15 -26.3 -22 -29.8 72 72 Calm 30.53 1034 10 16.0934 0 0
3:15 am 03:15 Hazy -18 -27.5 -24 -31.3 70 70 Calm 30.53 1034 2.5 4.02335 0 0
3:35 am 03:35 Clear -15 -26.2 -21 -29.6 73 73 WNW 6 9 30.53 1034 10 16.0934 0 0
3:55 am 03:55 Clear -15 -26.2 -21 -29.7 72 72 W 5 7 30.56 1035 10 16.0934 0 0
4:15 am 04:15 Clear -16 -26.4 -22 -29.9 72 72 WSW 3 6 30.53 1034 10 16.0934 0 0
4:35 am 04:35 Clear -16 -26.5 -22 -30 72 72 W 6 9 30.53 1034 10 16.0934 0 0
4:55 am 04:55 Clear -16 -26.6 -22 -30.1 72 72 SW 5 7 30.53 1034 7 11.26538 0 0
5:15 am 05:15 Clear -17 -27 -23 -30.6 72 72 W 6 9 30.53 1034 10 16.0934 0 0
5:35 am 05:35 Clear -16 -26.5 -22 -29.9 73 73 W 6 9 30.53 1034 10 16.0934 0 0
5:55 am 05:55 Clear -14 -25.5 -20 -28.9 73 73 W 9 15 30.53 1034 10 16.0934 0 0
6:15 am 06:15 Clear -15 -25.9 -21 -29.3 73 73 WNW 7 11 30.53 1034 10 16.0934 0 0
6:35 am 06:35 Clear -13 -25.2 -19 -28.4 75 75 WNW 10 17 30.53 1034 10 16.0934 0 0
6:55 am 06:55 Clear -14 -25.6 -20 -28.9 74 74 WNW 6 9 30.53 1034 10 16.0934 0 0
7:15 am 07:15 Clear -15 -26.3 -21 -29.7 73 73 WNW 6 9 30.56 1035 10 16.0934 0 0
7:35 am 07:35 Clear -16 -26.8 -23 -30.4 72 72 WNW 7 11 30.56 1035 10 16.0934 0 0
7:55 am 07:55 Clear -15 -26.2 -21 -29.7 72 72 NW 6 9 30.56 1035 10 16.0934 0 0
8:15 am 08:15 Sunny -15 -26 -21 -29.2 75 75 NW 8 13 30.56 1035 10 16.0934 0 0
8:35 am 08:35 Sunny -13 -25 -19 -28.4 73 73 WNW 5 7 30.56 1035 10 16.0934 0 0
8:55 am 08:55 Sunny -13 -24.8 -19 -28.1 74 74 WNW 7 11 30.59 1036 10 16.0934 0 0
9:15 am 09:15 Sunny -11 -23.8 -16 -26.9 76 76 WNW 10 17 30.56 1035 10 16.0934 0 0
9:35 am 09:35 Sunny -8 -22 -13 -25 77 77 WNW 12 19 30.53 1034 10 16.0934 0 0
9:55 am 09:55 Sunny -6 -20.9 -11 -23.8 78 78 WNW 15 24 30.53 1034 10 16.0934 0 0
10:15 am 10:15 Sunny -4 -20 -9 -22.8 79 79 WNW 15 24 30.53 1034 10 16.0934 0 0
10:35 am 10:35 Sunny -2 -19 -7 -21.7 79 79 WNW 15 24 30.5 1033 10 16.0934 0 0
10:55 am 10:55 Sunny -1 -18.4 -6 -21 80 80 WNW 15 24 30.5 1033 10 16.0934 0 0
11:15 am 11:15 Sunny 0 -17.8 -5 -20.5 80 80 WNW 9 15 30.5 1033 10 16.0934 0 0
11:35 am 11:35 Sunny 1 -17.1 -4 -20.1 78 78 WNW 12 19 30.48 1032 10 16.0934 0 0
11:55 am 11:55 Sunny 2 -16.5 -4 -19.9 75 75 W 8 13 30.48 1032 10 16.0934 0 0
12:15 pm 12:15 Sunny 4 -15.4 -4 -20 68 68 WNW 10 17 30.48 1032 10 16.0934 0 0
12:35 pm 12:35 Sunny 5 -14.9 -5 -20.5 63 63 WNW 7 11 30.48 1032 10 16.0934 0 0
12:55 pm 12:55 Sunny 6 -14.3 -4 -20 62 62 WNW 6 9 30.45 1031 10 16.0934 0 0
1:15 pm 13:15 Sunny 7 -13.9 -3 -19.5 63 63 NW 3 6 30.42 1030 10 16.0934 0 0
1:35 pm 13:35 Sunny 8 -13.3 -2 -19.1 62 62 Calm 30.42 1030 10 16.0934 0 0
1:55 pm 13:55 Sunny 9 -13 -2 -19 61 61 Calm 30.42 1030 10 16.0934 0 0
2:15 pm 14:15 Sunny 10 -12.4 -1 -18.6 60 60 Calm 30.42 1030 10 16.0934 0 0
2:35 pm 14:35 Sunny 11 -11.9 -1 -18.1 60 60 WNW 3 6 30.39 1029 10 16.0934 0 0
2:55 pm 14:55 Sunny 11 -11.8 0 -17.9 61 61 Calm 30.39 1029 10 16.0934 0 0
3:15 pm 15:15 Sunny 11 -11.5 1 -17.5 61 61 Calm 30.39 1029 10 16.0934 0 0
3:35 pm 15:35 Sunny 12 -11 2 -16.7 63 63 Calm 30.39 1029 10 16.0934 0 0
3:55 pm 15:55 Sunny 13 -10.7 2 -16.7 62 62 Calm 30.42 1030 10 16.0934 0 0
4:15 pm 16:15 Sunny 13 -10.7 2 -16.6 62 62 Calm 30.42 1030 10 16.0934 0 0
4:35 pm 16:35 Sunny 13 -10.5 2 -16.6 61 61 Calm 30.42 1030 10 16.0934 0 0
4:55 pm 16:55 Sunny 11 -11.6 2 -16.6 67 67 Calm 30.42 1030 10 16.0934 0 0
5:15 pm 17:15 Sunny 11 -11.6 2 -16.5 67 67 Calm 30.42 1030 10 16.0934 0 0
5:35 pm 17:35 Clear 10 -12.1 2 -16.5 70 70 Calm 30.45 1031 10 16.0934 0 0
5:55 pm 17:55 Clear 9 -12.6 2 -16.5 73 73 SW 5 7 30.45 1031 10 16.0934 0 0
6:15 pm 18:15 Clear 9 -12.6 0 -18 64 64 W 7 11 30.48 1032 10 16.0934 0 0
6:35 pm 18:35 Clear 1 -17.2 -4 -19.8 80 80 WNW 9 15 30.53 1034 10 16.0934 0 0
6:55 pm 18:55 Clear -2 -18.9 -7 -21.6 79 79 WNW 5 7 30.53 1034 10 16.0934 0 0
7:15 pm 19:15 Clear 1 -17.5 -5 -20.6 77 77 WSW 5 7 30.53 1034 10 16.0934 0 0
7:35 pm 19:35 Clear 1 -17 -4 -20.2 76 76 WSW 3 6 30.53 1034 10 16.0934 0 0
7:55 pm 19:55 Clear 2 -16.4 -4 -19.9 75 75 WSW 3 6 30.53 1034 10 16.0934 0 0
8:15 pm 20:15 Clear 1 -17 -5 -20.6 74 74 WSW 5 7 30.56 1035 10 16.0934 0 0
8:35 pm 20:35 Clear 1 -17.5 -6 -21.1 74 74 WSW 6 9 30.56 1035 10 16.0934 0 0
8:55 pm 20:55 Clear -4 -20 -9 -23 77 77 W 9 15 30.59 1036 10 16.0934 0 0
9:15 pm 21:15 Clear -2 -18.9 -8 -22 77 77 WNW 7 11 30.56 1035 10 16.0934 0 0
9:35 pm 21:35 Clear -4 -19.8 -10 -23.2 75 75 NW 7 11 30.62 1037 10 16.0934 0 0
9:55 pm 21:55 Clear -4 -20.2 -10 -23.1 78 78 NW 9 15 30.62 1037 10 16.0934 0 0
10:15 pm 22:15 Clear -3 -19.6 -9 -22.8 76 76 NW 9 15 30.62 1037 10 16.0934 0 0
10:35 pm 22:35 Clear -2 -19 -8 -22.3 75 75 NNW 9 15 30.62 1037 10 16.0934 0 0
10:55 pm 22:55 Clear -2 -19 -8 -22.2 76 76 NW 8 13 30.62 1037 10 16.0934 0 0
11:15 pm 23:15 Clear -1 -18.3 -7 -21.4 77 77 WNW 10 17 30.62 1037 10 16.0934 0 0
11:35 pm 23:35 Clear 0 -18 -7 -21.5 74 74 NW 7 11 30.62 1037 10 16.0934 0 0
11:55 pm 23:55 Clear 2 -16.9 -5 -20.7 73 73 WNW 9 15 30.62 1037 10 16.0934 0 0

Powered by AerisWeather